SUNNYSIDE Weather Reports


time (UTC)temp
C
wind
direction
speed
KPH
gust
KPH
rain 1hr
cm
rain 24hr
cm
rain mn
cm
humidity
%
barometer
mb
20260504033040 8 226 16.1 33.8 0.00 0.00 0.00 54 964.9
20260504032537 8 248 11.3 24.1 0.00 0.00 0.00 55 965.1
20260504032035 8 246 16.1 27.4 0.00 0.00 0.00 55 965.1
20260504031533 8 255 16.1 32.2 0.00 0.00 0.00 56 965.3
20260504031032 8 294 19.3 33.8 0.00 0.00 0.00 56 965.7
20260504030532 9 257 17.7 35.4 0.00 0.00 0.00 56 966.0
20260504030033 9 280 25.7 46.7 0.00 0.00 0.00 55 966.1
20260504025532 10 290 30.6 49.9 0.00 0.00 0.00 54 966.1
20260504025034 11 284 29.0 45.1 0.00 0.00 0.00 50 965.9
20260504024541 11 263 30.6 45.1 0.00 0.00 0.00 46 965.8
20260504024032 12 267 32.2 46.7 0.00 0.00 0.00 45 965.6
20260504023532 12 269 27.4 53.1 0.00 0.00 0.00 45 965.6
20260504023032 12 291 32.2 56.3 0.00 0.00 0.00 42 965.3
20260504022535 13 269 33.8 56.3 0.00 0.00 0.00 39 965.1
20260504022032 14 285 24.1 45.1 0.00 0.00 0.00 37 964.9
20260504021532 15 277 24.1 53.1 0.00 0.00 0.00 34 964.6
20260504021030 15 263 22.5 53.1 0.00 0.00 0.00 32 964.3
20260504020530 15 285 24.1 41.8 0.00 0.00 0.00 30 964.4
20260504020030 15 286 19.3 32.2 0.00 0.00 0.00 31 964.2
20260504015530 15 360 16.1 25.7 0.00 0.00 0.00 30 964.1
20260504015033 16 306 14.5 29.0 0.00 0.00 0.00 30 964.0
20260504014530 16 360 19.3 37.0 0.00 0.00 0.00 28 964.1
20260504014032 16 302 20.9 32.2 0.00 0.00 0.00 28 964.0
20260504013531 16 306 17.7 32.2 0.00 0.00 0.00 29 964.0
20260504013037 16 288 16.1 29.0 0.00 0.00 0.00 29 964.0
20260504012531 16 296 16.1 29.0 0.00 0.00 0.00 28 963.9
20260504012030 16 360 17.7 29.0 0.00 0.00 0.00 27 963.7
20260504011530 16 360 16.1 25.7 0.00 0.00 0.00 27 963.7
20260504011032 17 360 16.1 30.6 0.00 0.00 0.00 26 963.7
20260504010530 17 360 20.9 32.2 0.00 0.00 0.00 25 963.7
20260504010029 17 360 17.7 32.2 0.00 0.00 0.00 26 963.7
20260504005528 17 360 11.3 22.5 0.00 0.00 0.00 28 963.7
20260504005028 18 302 11.3 35.4 0.00 0.00 0.00 26 963.6
20260504004528 18 282 19.3 35.4 0.00 0.00 0.00 24 963.5
20260504004027 18 276 16.1 27.4 0.00 0.00 0.00 25 963.6
20260504003527 18 360 16.1 27.4 0.00 0.00 0.00 25 963.7
20260504003038 18 254 17.7 25.7 0.00 0.00 0.00 25 963.7
20260504002529 18 273 16.1 25.7 0.00 0.00 0.00 25 963.8
20260504002025 19 360 14.5 22.5 0.00 0.00 0.00 25 963.9
20260504001525 19 292 14.5 29.0 0.00 0.00 0.00 25 964.0
20260504001028 19 292 14.5 29.0 0.00 0.00 0.00 25 964.0
20260504000523 19 360 17.7 29.0 0.00 0.00 0.00 27 964.1
20260504000023 20 236 14.5 27.4 0.00 0.00 0.00 31 964.1
20260503235522 20 360 16.1 32.2 0.00 0.00 0.00 31 964.0
20260503235022 20 275 22.5 32.2 0.00 0.00 0.00 31 964.1
20260503234522 20 245 20.9 32.2 0.00 0.00 0.00 31 964.1
20260503234022 20 273 16.1 33.8 0.00 0.00 0.00 32 964.2
20260503233523 20 249 22.5 41.8 0.00 0.00 0.00 33 964.3
20260503233024 20 245 25.7 41.8 0.00 0.00 0.00 32 964.3
20260503232523 20 236 22.5 40.2 0.00 0.00 0.00 32 964.5
20260503232019 20 229 25.7 38.6 0.00 0.00 0.00 32 964.4
20260503231519 20 236 24.1 45.1 0.00 0.00 0.00 32 964.6
20260503231022 20 360 29.0 45.1 0.00 0.00 0.00 32 964.7
20260503230519 20 220 29.0 49.9 0.00 0.00 0.00 32 964.5
20260503230017 20 360 38.6 51.5 0.00 0.00 0.00 32 964.6
20260503225517 20 238 32.2 51.5 0.00 0.00 0.00 33 964.7
20260503225021 19 236 29.0 53.1 0.00 0.00 0.00 34 964.7
20260503224526 20 242 40.2 53.1 0.00 0.00 0.00 33 964.8
20260503224016 19 248 40.2 53.1 0.00 0.00 0.00 34 964.8
20260503223517 19 244 33.8 51.5 0.00 0.00 0.00 35 964.9
20260503223016 19 230 35.4 57.9 0.00 0.00 0.00 34 964.9
20260503222514 19 227 38.6 57.9 0.00 0.00 0.00 34 965.1
20260503222014 19 237 33.8 59.5 0.00 0.00 0.00 34 965.1
20260503221515 19 254 35.4 57.9 0.00 0.00 0.00 33 965.1
20260503221013 19 253 37.0 51.5 0.00 0.00 0.00 33 965.1
20260503220514 18 261 35.4 49.9 0.00 0.00 0.00 32 964.9
20260503220020 18 233 35.4 51.5 0.00 0.00 0.00 33 965.0
20260503215511 18 360 37.0 54.7 0.00 0.00 0.00 33 965.3
20260503215010 18 245 35.4 59.5 0.00 0.00 0.00 32 965.5
20260503214511 19 238 37.0 61.2 0.00 0.00 0.00 30 965.6
20260503214010 20 243 30.6 54.7 0.00 0.00 0.00 29 965.8
20260503213509 19 360 27.4 56.3 0.00 0.00 0.00 28 965.6
20260503213011 20 271 27.4 56.3 0.00 0.00 0.00 27 965.7
20260503212515 20 269 33.8 54.7 0.00 0.00 0.00 23 966.0
20260503212008 21 257 25.7 51.5 0.00 0.00 0.00 22 966.0
20260503211508 21 261 24.1 40.2 0.00 0.00 0.00 19 966.0
20260503211008 21 242 22.5 40.2 0.00 0.00 0.00 19 965.7
20260503210508 21 223 27.4 37.0 0.00 0.00 0.00 20 965.5
20260503210008 22 241 25.7 49.9 0.00 0.00 0.00 18 965.7
20260503205506 22 222 29.0 41.8 0.00 0.00 0.00 19 965.7
20260503205006 22 237 30.6 41.8 0.00 0.00 0.00 19 966.0
20260503204505 21 246 29.0 38.6 0.00 0.00 0.00 18 966.0
20260503204003 21 221 22.5 33.8 0.00 0.00 0.00 19 966.2
20260503203503 21 228 24.1 38.6 0.00 0.00 0.00 21 966.4
20260503203002 21 236 22.5 38.6 0.00 0.00 0.00 21 966.4
20260503202502 21 246 20.9 33.8 0.00 0.00 0.00 19 966.5
20260503202002 21 248 19.3 41.8 0.00 0.00 0.00 20 966.5
20260503201602 21 247 22.5 41.8 0.00 0.00 0.00 20 966.5
20260503201103 21 251 29.0 40.2 0.00 0.00 0.00 19 966.7
20260503200559 21 233 17.7 33.8 0.00 0.00 0.00 18 966.7
20260503200058 21 222 20.9 45.1 0.00 0.00 0.00 19 966.9
20260503195557 21 238 33.8 45.1 0.00 0.00 0.00 19 967.3
20260503195056 21 238 25.7 38.6 0.00 0.00 0.00 19 967.5
20260503194601 21 220 22.5 38.6 0.00 0.00 0.00 20 967.6
20260503194054 21 360 24.1 48.3 0.00 0.00 0.00 19 967.8
20260503193554 21 234 27.4 48.3 0.00 0.00 0.00 20 968.1
20260503193053 21 233 29.0 40.2 0.00 0.00 0.00 19 968.3
20260503192552 21 242 20.9 40.2 0.00 0.00 0.00 20 968.4
20260503192051 21 231 29.0 46.7 0.00 0.00 0.00 20 968.6
20260503191550 21 236 29.0 46.7 0.00 0.00 0.00 21 968.8
20260503191049 21 246 25.7 43.5 0.00 0.00 0.00 20 968.9
20260503190547 21 238 24.1 41.8 0.00 0.00 0.00 19 969.0
20260503190047 21 360 25.7 43.5 0.00 0.00 0.00 21 969.3
20260503185545 21 217 30.6 45.1 0.00 0.00 0.00 22 969.6
20260503185047 20 255 27.4 40.2 0.00 0.00 0.00 21 969.7
20260503184601 20 249 22.5 40.2 0.00 0.00 0.00 23 970.0
20260503184043 20 230 20.9 35.4 0.00 0.00 0.00 23 970.2
20260503183542 20 244 19.3 38.6 0.00 0.00 0.00 23 970.3
20260503183048 20 215 25.7 37.0 0.00 0.00 0.00 23 970.4
20260503182541 20 245 20.9 35.4 0.00 0.00 0.00 24 970.5
20260503182040 20 203 19.3 41.8 0.00 0.00 0.00 24 970.7
20260503181540 20 237 20.9 41.8 0.00 0.00 0.00 23 970.8
20260503181038 20 250 32.2 41.8 0.00 0.00 0.00 23 971.1
20260503180536 20 225 24.1 37.0 0.00 0.00 0.00 25 971.2
20260503180037 20 257 20.9 40.2 0.00 0.00 0.00 23 971.4
20260503175534 20 215 27.4 38.6 0.00 0.00 0.00 25 971.5
20260503175037 20 240 20.9 37.0 0.00 0.00 0.00 26 971.5
20260503174534 19 276 24.1 37.0 0.00 0.00 0.00 25 971.7
20260503174034 19 232 17.7 35.4 0.00 0.00 0.00 24 971.8
20260503173534 19 233 20.9 37.0 0.00 0.00 0.00 25 972.1
20260503173035 20 230 20.9 37.0 0.00 0.00 0.00 26 972.3
20260503172532 20 229 22.5 37.0 0.00 0.00 0.00 26 972.2
20260503172029 19 243 12.9 32.2 0.00 0.00 0.00 27 972.3
20260503171531 19 221 20.9 32.2 0.00 0.00 0.00 25 972.5
20260503171026 19 213 16.1 27.4 0.00 0.00 0.00 25 972.7
20260503170525 18 222 17.7 32.2 0.00 0.00 0.00 28 972.8
20260503150552 13 268 16.1 25.7 0.00 0.00 0.00 38 976.3
20260503131025 7 360 9.7 17.7 0.00 0.00 0.00 48 978.3
20260503130522 7 232 8.0 16.1 0.00 0.00 0.00 49 978.2
20260503110503 1 229 6.4 9.7 0.00 0.00 0.00 55 979.1
20260503081544 2 228 6.4 11.3 0.00 0.00 0.00 51 980.1
20260503081043 2 234 6.4 11.3 0.00 0.00 0.00 52 980.2
20260503080544 2 232 4.8 8.0 0.00 0.00 0.00 52 980.1
20260503072540 3 264 3.2 8.0 0.00 0.00 0.00 47 980.3
20260503072042 3 360 4.8 8.0 0.00 0.00 0.00 47 980.3
20260503071557 3 265 4.8 8.0 0.00 0.00 0.00 48 980.3
20260503071038 3 360 4.8 8.0 0.00 0.00 0.00 49 980.4
20260503070537 3 360 4.8 8.0 0.00 0.00 0.00 50 980.4
20260503055030 4 269 6.4 11.3 0.00 0.00 0.00 48 980.7
20260503054529 4 281 3.2 8.0 0.00 0.00 0.00 48 980.7
20260503054028 4 273 4.8 8.0 0.00 0.00 0.00 48 980.6
20260503053528 4 285 3.2 6.4 0.00 0.00 0.00 48 980.6
20260503053034 4 276 3.2 6.4 0.00 0.00 0.00 47 980.6
20260503052526 4 282 3.2 8.0 0.00 0.00 0.00 47 980.6
20260503052028 5 285 4.8 9.7 0.00 0.00 0.00 46 980.6
20260503051529 5 299 4.8 11.3 0.00 0.00 0.00 46 980.7
20260503051025 5 284 4.8 14.5 0.00 0.00 0.00 46 980.6
20260503050523 4 286 9.7 14.5 0.00 0.00 0.00 47 980.7
20260503050022 4 281 8.0 12.9 0.00 0.00 0.00 47 980.6
20260503045522 4 277 4.8 12.9 0.00 0.00 0.00 48 980.6
20260503045022 5 280 6.4 12.9 0.00 0.00 0.00 47 980.6
20260503044541 5 303 6.4 9.7 0.00 0.00 0.00 47 980.6
20260503044023 5 292 6.4 11.3 0.00 0.00 0.00 47 980.6
20260503043521 5 286 6.4 14.5 0.00 0.00 0.00 47 980.6
20260503043038 5 306 6.4 14.5 0.00 0.00 0.00 46 980.5
20260503042521 5 289 4.8 12.9 0.00 0.00 0.00 46 980.5
20260503042021 5 296 6.4 12.9 0.00 0.00 0.00 46 980.6
20260503041521 6 360 3.2 6.4 0.00 0.00 0.00 44 980.5
20260503041021 6 327 3.2 12.9 0.00 0.00 0.00 44 980.5
20260503040523 6 360 6.4 12.9 0.00 0.00 0.00 43 980.6
20260503040020 6 360 4.8 9.7 0.00 0.00 0.00 43 980.7
20260503035519 6 331 3.2 12.9 0.00 0.00 0.00 42 980.7
20260503035019 7 360 6.4 17.7 0.00 0.00 0.00 41 980.6
20260503034520 7 339 8.0 17.7 0.00 0.00 0.00 41 980.7
20260503034020 7 306 6.4 14.5 0.00 0.00 0.00 40 980.7
20260503033522 7 360 6.4 14.5 0.00 0.00 0.00 40 980.8